Tiempo cada hora Aljustrel

Hoy, 31 Julio, Sábado

Tiempo Temperatura Precipitaciones Viento Presión Humedad
00:00 +17°C° 0 mm 4 mps 749 mmHg 81%
01:00 +17°C° 0 mm 4 mps 749 mmHg 84%
02:00 +15°C° 0 mm 4 mps 749 mmHg 87%
03:00 +15°C° 0 mm 5 mps 749 mmHg 85%
04:00 +15°C° 0 mm 5 mps 749 mmHg 84%
05:00 +14°C° 0 mm 5 mps 749 mmHg 83%
06:00 +16°C° 0 mm 5 mps 749 mmHg 71%
07:00 +19°C° 0 mm 6 mps 750 mmHg 59%
08:00 +21°C° 0 mm 7 mps 750 mmHg 47%
09:00 +23°C° 0 mm 7 mps 750 mmHg 41%
10:00 +26°C° 0 mm 7 mps 750 mmHg 35%
11:00 +27°C° 0 mm 7 mps 749 mmHg 29%
12:00 +28°C° 0 mm 7 mps 749 mmHg 27%
13:00 +28°C° 0 mm 7 mps 749 mmHg 25%
14:00 +29°C° 0 mm 8 mps 749 mmHg 24%
15:00 +28°C° 0 mm 8 mps 749 mmHg 27%
16:00 +26°C° 0 mm 8 mps 749 mmHg 31%
17:00 +24°C° 0 mm 8 mps 749 mmHg 34%
18:00 +22°C° 0 mm 7 mps 749 mmHg 41%
19:00 +20°C° 0 mm 7 mps 750 mmHg 48%
20:00 +17°C° 0 mm 6 mps 750 mmHg 54%
21:00 +16°C° 0 mm 6 mps 750 mmHg 62%
22:00 +15°C° 0 mm 6 mps 750 mmHg 70%
23:00 +14°C° 0 mm 5 mps 750 mmHg 78%

Mañana, 1 Agosto, Domingo

Tiempo Temperatura Precipitaciones Viento Presión Humedad
00:00 +14°C° 0 mm 5 mps 750 mmHg 82%
01:00 +13°C° 0 mm 4 mps 749 mmHg 86%
02:00 +13°C° 0 mm 4 mps 749 mmHg 90%
03:00 +13°C° 0 mm 4 mps 749 mmHg 90%
04:00 +13°C° 0 mm 4 mps 749 mmHg 89%
05:00 +13°C° 0 mm 4 mps 749 mmHg 89%
06:00 +16°C° 0 mm 5 mps 749 mmHg 76%
07:00 +19°C° 0 mm 5 mps 750 mmHg 63%
08:00 +22°C° 0 mm 6 mps 750 mmHg 50%
09:00 +24°C° 0 mm 6 mps 749 mmHg 43%
10:00 +27°C° 0 mm 6 mps 749 mmHg 36%
11:00 +29°C° 0 mm 6 mps 749 mmHg 30%
12:00 +29°C° 0 mm 6 mps 748 mmHg 30%
13:00 +30°C° 0 mm 6 mps 748 mmHg 31%
14:00 +32°C° 0 mm 7 mps 747 mmHg 31%
15:00 +30°C° 0 mm 7 mps 747 mmHg 35%
16:00 +29°C° 0 mm 7 mps 747 mmHg 39%
17:00 +27°C° 0 mm 7 mps 747 mmHg 43%
18:00 +24°C° 0 mm 7 mps 747 mmHg 54%
19:00 +22°C° 0 mm 6 mps 747 mmHg 64%
20:00 +20°C° 0 mm 5 mps 748 mmHg 74%
21:00 +19°C° 0 mm 4 mps 748 mmHg 79%
22:00 +19°C° 0 mm 4 mps 748 mmHg 84%
23:00 +18°C° 0 mm 3 mps 748 mmHg 89%

Pasado mañana, 2 Agosto, Lunes

Tiempo Temperatura Precipitaciones Viento Presión Humedad
00:00 +18°C° 0 mm 3 mps 747 mmHg 92%
01:00 +17°C° 0 mm 2 mps 747 mmHg 94%
02:00 +17°C° 0 mm 2 mps 747 mmHg 96%
03:00 +17°C° 0 mm 2 mps 747 mmHg 96%
04:00 +17°C° 0 mm 2 mps 747 mmHg 97%
05:00 +17°C° 0 mm 2 mps 747 mmHg 97%
06:00 +19°C° 0 mm 2 mps 747 mmHg 86%
07:00 +21°C° 0 mm 3 mps 747 mmHg 76%
08:00 +24°C° 0 mm 3 mps 747 mmHg 65%
09:00 +26°C° 0 mm 3 mps 747 mmHg 56%
10:00 +28°C° 0 mm 3 mps 747 mmHg 46%
11:00 +30°C° 0 mm 3 mps 746 mmHg 37%
12:00 +32°C° 0 mm 4 mps 746 mmHg 34%
13:00 +33°C° 0 mm 4 mps 746 mmHg 31%
14:00 +34°C° 0 mm 4 mps 745 mmHg 28%
15:00 +33°C° 0 mm 5 mps 745 mmHg 31%
16:00 +32°C° 0 mm 6 mps 745 mmHg 34%
17:00 +30°C° 0 mm 6 mps 745 mmHg 37%
18:00 +28°C° 0 mm 6 mps 746 mmHg 43%
19:00 +26°C° 0 mm 5 mps 746 mmHg 49%
20:00 +22°C° 0 mm 5 mps 747 mmHg 56%
21:00 +21°C° 0 mm 4 mps 747 mmHg 60%
22:00 +20°C° 0 mm 3 mps 747 mmHg 64%
23:00 +19°C° 0 mm 3 mps 747 mmHg 69%

3 Agosto, Martes

Tiempo Temperatura Precipitaciones Viento Presión Humedad
00:00 +18°C° 0 mm 2 mps 747 mmHg 71%
01:00 +18°C° 0 mm 2 mps 747 mmHg 74%
02:00 +17°C° 0 mm 2 mps 747 mmHg 76%
03:00 +17°C° 0 mm 2 mps 747 mmHg 77%
04:00 +18°C° 0 mm 1 mps 747 mmHg 77%
05:00 +18°C° 0 mm 1 mps 747 mmHg 78%
06:00 +21°C° 0 mm 1 mps 748 mmHg 66%
07:00 +24°C° 0 mm 1 mps 748 mmHg 54%
08:00 +27°C° 0 mm 2 mps 748 mmHg 43%
09:00 +29°C° 0 mm 2 mps 748 mmHg 36%
10:00 +32°C° 0 mm 2 mps 748 mmHg 30%
11:00 +35°C° 0 mm 2 mps 748 mmHg 24%
12:00 +36°C° 0 mm 3 mps 748 mmHg 23%
13:00 +37°C° 0 mm 3 mps 747 mmHg 21%
14:00 +38°C° 0 mm 4 mps 747 mmHg 20%
15:00 +36°C° 0 mm 5 mps 747 mmHg 21%
16:00 +35°C° 0 mm 6 mps 747 mmHg 23%
17:00 +34°C° 0 mm 7 mps 747 mmHg 25%
18:00 +30°C° 0 mm 7 mps 747 mmHg 28%
19:00 +28°C° 0 mm 6 mps 748 mmHg 30%
20:00 +25°C° 0 mm 5 mps 748 mmHg 32%
21:00 +23°C° 0 mm 5 mps 748 mmHg 40%
22:00 +21°C° 0 mm 5 mps 749 mmHg 48%
23:00 +19°C° 0 mm 4 mps 749 mmHg 56%

4 Agosto, Miércoles

Tiempo Temperatura Precipitaciones Viento Presión Humedad
00:00 +19°C° 0 mm 4 mps 749 mmHg 65%
01:00 +19°C° 0 mm 4 mps 749 mmHg 74%
02:00 +18°C° 0 mm 4 mps 748 mmHg 83%
03:00 +18°C° 0 mm 4 mps 749 mmHg 86%
04:00 +18°C° 0 mm 3 mps 749 mmHg 89%
05:00 +18°C° 0 mm 3 mps 749 mmHg 92%
06:00 +20°C° 0 mm 4 mps 749 mmHg 77%
07:00 +23°C° 0 mm 4 mps 749 mmHg 63%
08:00 +26°C° 0 mm 5 mps 749 mmHg 49%
09:00 +29°C° 0 mm 5 mps 749 mmHg 39%
10:00 +33°C° 0 mm 5 mps 749 mmHg 29%
11:00 +36°C° 0 mm 6 mps 749 mmHg 19%
12:00 +38°C° 0 mm 6 mps 748 mmHg 17%
13:00 +38°C° 0 mm 6 mps 748 mmHg 15%
14:00 +39°C° 0 mm 7 mps 748 mmHg 13%
15:00 +38°C° 0 mm 7 mps 748 mmHg 15%
16:00 +35°C° 0 mm 8 mps 748 mmHg 17%
17:00 +34°C° 0 mm 8 mps 748 mmHg 19%
18:00 +31°C° 0 mm 8 mps 749 mmHg 29%
19:00 +27°C° 0 mm 7 mps 749 mmHg 40%
20:00 +23°C° 0 mm 6 mps 750 mmHg 50%
21:00 +21°C° 0 mm 6 mps 750 mmHg 59%
22:00 +20°C° 0 mm 6 mps 750 mmHg 67%
23:00 +19°C° 0 mm 5 mps 750 mmHg 76%

5 Agosto, Jueves

Tiempo Temperatura Precipitaciones Viento Presión Humedad
00:00 +17°C° 0 mm 5 mps 750 mmHg 77%
01:00 +18°C° 0 mm 4 mps 749 mmHg 79%
02:00 +18°C° 0 mm 4 mps 749 mmHg 80%
03:00 +18°C° 0 mm 4 mps 749 mmHg 80%
04:00 +18°C° 0 mm 4 mps 749 mmHg 79%
05:00 +18°C° 0 mm 4 mps 749 mmHg 78%
06:00 +21°C° 0 mm 5 mps 749 mmHg 67%
07:00 +23°C° 0 mm 5 mps 750 mmHg 55%
08:00 +27°C° 0 mm 6 mps 750 mmHg 43%
09:00 +30°C° 0 mm 6 mps 750 mmHg 37%
10:00 +34°C° 0 mm 7 mps 749 mmHg 31%
11:00 +38°C° 0 mm 7 mps 749 mmHg 24%
12:00 +38°C° 0 mm 7 mps 749 mmHg 23%
13:00 +39°C° 0 mm 7 mps 748 mmHg 22%
14:00 +40°C° 0 mm 8 mps 748 mmHg 21%
15:00 +38°C° 0 mm 8 mps 748 mmHg 26%
16:00 +37°C° 0 mm 8 mps 748 mmHg 32%
17:00 +34°C° 0 mm 8 mps 748 mmHg 37%
18:00 +32°C° 0 mm 7 mps 748 mmHg 43%
19:00 +28°C° 0 mm 7 mps 748 mmHg 49%
20:00 +24°C° 0 mm 6 mps 749 mmHg 55%
21:00 +23°C° 0 mm 6 mps 749 mmHg 63%
22:00 +21°C° 0 mm 5 mps 749 mmHg 71%
23:00 +20°C° 0 mm 5 mps 749 mmHg 79%
Mostrar más

Necesitamos Su Consentimiento

Meteoprog y nuestros Proveedores de Servicios pueden almacenar y acceder a sus datos personales como cookies, identificadores de dispositivo u otras tecnologías similares de su dispositivo y procesar dichos datos para personalizar contenido y anuncios, además de ofrecer funciones de redes sociales y analizar el tráfico.

  • Almacenar y/o acceder a información en su dispositivo

    Se puede almacenar o acceder a cookies, identificadores de dispositivo u otra información de su dispositivo para los fines anteriormente indicados.

  • Anuncios y contenido personalizados, medición de anuncios y contenido, percepciones del público, y desarrollo de productos

    Los anuncios y el contenido pueden personalizarse en base a su perfil. Se pueden añadir más datos para personalizar mejor los anuncios y contenidos. Se puede medir el rendimiento de los anuncios y contenidos. Se puede obtener la percepción sobre el público que ha visto los anuncios y contenidos. Dichos datos pueden usarse para desarrollar o mejorar la experiencia del usuario, sistemas y software.

Al hacer clic en ‘Estoy De Acuerdo’ usted permitirá el uso de las cookies, identificadores de dispositivo, balizas web u otras tecnologías similares indicadas. Su configuración puede cambiarse desde el navegador de su dispositivo.

Para ciertos fines, los intereses legítimos pueden ser considerados por encima del consentimiento. Puede leer más sobre ello en nuestra Política de Privacidad y Cookies.